ECMWFNIL_sfc_temp_021.txt.gz
Temp
27 27 26 26 26 26 26 25 25 24 24 24 23 23 23 24 25 24 24 24 24 24 25 25 25 25 26 27 27 29 30 29 29 31 33 35 35 37 39 39 39 38
26 27 27 27 26 26 25 25 24 24 23 24 23 24 24 24 24 24 23 23 24 23 24 24 25 25 25 25 25 26 26 27 27 31 32 33 34 36 38 39 39 39
25 25 25 24 24 24 24 24 24 24 23 23 24 24 23 24 23 23 23 23 22 23 23 23 23 24 24 24 24 25 25 26 27 29 31 32 33 35 38 39 39 39
25 25 24 24 24 23 24 23 23 23 23 22 23 23 23 23 23 23 22 23 22 22 22 22 22 23 23 23 23 24 24 26 27 29 29 31 32 34 36 39 39 40
24 24 24 24 24 24 23 22 22 22 22 22 22 23 23 22 22 22 22 21 21 21 21 21 22 22 22 22 23 22 24 26 28 29 29 30 32 34 36 38 39 39
24 24 23 23 23 22 22 21 22 22 22 21 22 22 22 22 21 21 21 20 20 20 20 21 21 21 22 22 22 23 24 25 27 28 29 29 31 33 35 37 38 38
22 22 22 22 22 22 21 21 21 22 22 22 22 21 21 21 21 21 21 21 20 20 19 19 20 20 21 21 21 22 23 24 25 27 28 29 30 32 35 36 37 38
21 21 21 21 21 21 20 20 21 21 21 21 20 21 21 21 21 22 22 20 19 19 19 19 19 20 20 20 20 20 20 22 23 24 26 28 30 31 32 35 37 37
21 20 20 20 19 20 19 20 20 20 21 20 20 20 21 21 21 21 20 19 19 18 19 19 19 20 20 20 20 19 19 21 23 24 25 27 28 29 30 33 36 36
19 19 19 19 18 19 19 19 19 19 20 20 20 20 19 20 20 20 19 18 18 18 18 19 19 20 21 21 21 20 20 21 23 25 26 27 28 29 30 32 34 36
18 18 17 18 18 18 18 18 18 18 19 19 18 18 18 18 18 18 18 17 17 17 18 18 19 19 20 20 22 23 22 22 23 24 25 26 27 28 30 31 33 35
17 17 17 17 17 17 17 17 18 18 17 17 18 16 17 17 16 16 16 16 17 17 17 18 18 19 19 19 20 20 20 20 21 21 23 24 26 28 29 31 32 35
15 15 16 16 16 16 17 17 17 16 16 15 15 15 14 14 14 14 15 16 16 17 17 17 18 18 18 19 19 20 20 20 20 21 22 23 26 27 29 31 32 34
15 15 15 16 16 16 16 15 15 15 14 14 14 13 13 13 13 13 14 14 15 15 17 17 17 17 18 18 19 19 19 19 20 21 22 24 25 27 29 31 33 34
15 15 15 15 15 15 13 13 13 12 12 12 12 12 12 12 13 13 13 13 14 15 16 17 17 17 18 18 18 19 19 19 20 21 22 23 24 26 28 30 32 34
14 14 14 14 13 11 11 11 10 10 10 10 10 10 11 11 12 12 12 12 13 14 16 16 17 18 19 22 23 21 21 21 21 22 23 23 23 25 27 29 32 34
12 12 12 10 10 9 8 8 8 8 8 8 8 9 9 10 11 11 12 12 13 13 14 16 17 18 21 23 24 25 24 23 23 23 24 25 25 25 26 28 30 32
10 10 8 7 7 6 6 6 6 6 6 7 7 8 9 10 10 11 11 13 14 14 15 16 17 20 23 24 24 25 25 23 22 22 22 23 24 26 27 27 29 32
8 6 5 5 5 5 5 5 5 5 6 6 7 8 9 9 10 10 11 13 14 14 14 16 16 21 23 24 24 25 26 25 22 22 22 22 23 25 27 28 29 30
6 4 3 3 4 4 4 4 5 5 6 8 9 9 9 9 10 10 11 12 14 14 15 16 17 20 23 24 25 25 26 25 23 22 22 23 24 25 27 28 29 29
4 3 2 2 3 3 3 4 5 6 7 8 9 9 9 9 10 10 12 13 14 14 15 15 17 22 23 25 25 26 26 26 23 23 23 23 24 26 27 28 29 29
2 1 1 1 2 2 3 4 5 6 7 9 9 9 10 10 10 11 11 12 13 14 15 15 17 22 24 25 26 26 27 24 23 22 22 23 25 26 27 29 29 29
1 0 -0 0 1 1 2 4 5 6 7 9 8 8 8 8 8 9 11 12 13 14 14 15 16 20 24 25 25 26 25 22 22 21 22 23 25 27 29 29 30 30
-0 -1 -1 -1 0 1 2 4 6 7 7 8 7 6 6 7 8 9 10 12 12 13 15 15 17 20 24 25 26 26 25 22 21 20 20 22 24 27 28 29 29 31
-1 -1 -1 -1 0 2 3 4 5 6 7 7 6 6 6 7 8 8 9 11 13 14 19 19 18 21 25 26 26 27 25 23 22 21 20 21 23 25 28 29 29 30
-2 -2 -1 -0 1 2 3 5 6 6 6 5 5 5 5 7 8 8 8 10 13 14 16 18 19 20 22 26 26 26 27 24 23 21 19 20 22 24 25 27 29 30

ECMWFNIL_sfc_temp_024.txt.gz
Temp
25 25 24 24 24 25 25 24 24 23 23 23 23 23 23 23 24 24 24 24 24 24 23 23 23 23 23 23 23 23 23 23 23 24 24 24 24 24 24 25 27 29
24 25 26 25 25 25 24 24 23 23 23 23 23 23 24 24 23 24 23 23 23 23 23 23 23 23 22 22 22 21 21 22 21 23 22 22 23 23 23 24 25 27
24 23 23 23 23 23 23 23 23 23 23 23 23 23 23 23 23 23 23 23 22 22 22 22 22 22 22 22 21 21 21 20 20 22 22 21 22 22 23 24 25 27
23 23 23 23 23 22 23 22 22 22 22 22 22 22 23 23 23 22 22 23 21 21 21 21 21 21 21 21 21 20 20 20 21 21 21 21 22 22 23 24 25 27
23 23 23 23 23 23 22 21 21 21 21 21 21 22 22 22 21 21 21 21 21 21 21 21 21 21 21 21 20 19 20 20 20 21 20 20 21 22 22 23 24 25
22 22 22 22 22 21 21 20 21 20 21 20 21 21 21 21 20 20 20 20 20 20 21 21 21 21 21 20 19 19 19 19 19 20 19 19 20 22 23 25 25 26
21 21 21 21 21 21 20 20 20 21 20 21 21 20 20 20 20 20 20 20 20 20 20 20 19 19 20 20 19 18 19 19 19 19 19 19 20 21 23 24 24 26
21 21 20 20 20 20 19 19 19 19 20 20 19 20 20 19 19 19 20 19 18 19 19 19 19 19 19 20 18 18 18 20 20 19 19 19 19 19 20 21 22 22
20 19 20 19 19 19 18 19 19 19 19 18 18 19 19 19 18 18 18 18 17 17 18 17 18 18 19 19 18 18 18 19 20 20 19 19 18 18 19 21 22 23
19 19 18 18 17 18 17 18 18 18 19 18 18 18 17 17 17 17 17 16 16 16 16 16 16 17 17 18 18 18 18 18 19 19 20 20 20 19 20 21 22 23
17 18 17 17 17 17 17 17 17 17 17 17 16 15 15 15 16 16 15 15 15 15 14 15 15 15 15 16 17 18 18 18 18 18 19 19 21 21 23 22 23 24
16 16 16 16 16 16 16 16 16 16 15 15 15 14 14 14 14 14 14 13 14 14 14 14 15 15 15 15 16 17 18 18 18 18 18 19 20 20 20 20 20 21
15 15 15 15 15 15 16 15 14 14 13 13 13 12 12 11 12 12 13 13 13 13 13 14 14 14 14 15 16 16 17 17 17 18 18 19 20 20 21 21 21 21
15 15 15 15 15 15 14 13 13 12 12 12 12 11 10 11 11 11 12 12 13 13 14 14 14 14 14 15 16 16 17 17 18 17 17 18 19 20 20 20 21 22
14 14 14 14 13 12 11 11 10 10 10 10 9 9 10 10 11 11 11 12 12 13 13 14 14 14 15 15 16 16 17 17 17 17 18 18 19 19 20 21 22 24
13 12 12 11 10 9 9 9 8 8 8 7 8 8 9 10 10 11 12 11 12 13 13 14 14 15 17 20 21 19 19 19 19 19 19 19 19 19 20 21 22 23
10 10 9 8 8 7 6 6 6 6 6 6 7 7 8 9 10 11 12 13 13 13 13 13 14 15 20 22 23 25 23 21 21 21 21 21 21 21 21 22 23 24
8 7 6 5 5 4 4 4 4 4 4 5 6 7 8 10 11 12 12 13 12 12 13 14 15 19 22 23 24 25 25 23 22 22 22 22 22 22 22 22 23 23
6 4 3 3 3 3 3 3 3 3 4 5 5 8 9 9 10 10 10 11 11 11 11 12 13 18 21 23 24 25 26 25 23 23 23 22 23 22 22 22 22 23
4 2 1 1 2 2 2 2 2 2 4 6 8 8 8 8 8 9 9 9 10 10 10 11 12 17 21 23 24 25 26 26 24 24 24 23 23 23 23 23 23 22
1 1 -0 0 1 1 1 1 2 3 5 6 7 8 7 7 7 6 7 8 8 9 9 10 12 19 21 23 24 25 27 27 24 25 25 24 24 23 24 24 24 23
-0 -1 -1 -1 -0 -0 -0 1 2 3 4 6 7 7 7 7 7 7 6 6 7 8 9 9 12 19 21 22 24 26 28 25 24 24 24 24 23 24 24 24 25 24
-1 -2 -2 -2 -1 -2 -1 0 2 3 4 6 5 5 5 5 4 5 6 6 7 8 8 9 11 16 21 23 24 26 26 23 24 23 23 23 23 24 24 24 25 25
-2 -3 -3 -3 -3 -3 -2 1 2 3 4 5 4 4 3 4 4 5 6 7 7 8 10 10 12 17 21 23 24 26 26 23 23 23 22 22 22 23 24 24 25 26
-3 -3 -3 -4 -4 -2 -1 -0 1 2 3 4 4 3 3 4 5 5 6 7 9 10 15 14 13 15 20 22 24 26 24 22 23 22 21 21 21 22 23 24 24 25
-4 -5 -4 -4 -3 -2 -1 1 2 2 2 2 2 3 3 4 5 6 6 8 10 11 12 13 13 14 18 23 24 25 26 23 23 22 21 21 22 21 20 22 23 24

ECMWFNIL_sfc_temp_030.txt.gz
Temp
40 40 38 38 38 38 38 36 37 36 36 36 35 36 36 36 36 34 34 34 34 33 33 33 33 33 32 33 33 32 32 31 32 32 31 31 31 30 29 30 30 30
38 38 38 38 37 37 37 36 35 35 35 35 35 35 35 34 34 33 33 32 33 32 32 32 32 32 32 32 31 31 31 31 30 31 30 30 30 30 29 30 30 30
37 36 36 35 35 35 35 35 34 34 34 34 34 34 33 33 32 32 32 32 31 31 31 31 31 31 31 31 30 30 30 29 29 31 30 29 30 30 30 30 30 30
36 36 35 35 34 34 34 33 33 33 33 33 33 33 32 31 32 31 31 30 30 30 31 31 30 31 30 30 30 29 29 29 30 30 29 29 30 30 29 30 30 30
36 35 35 34 34 34 33 32 32 32 32 32 32 32 32 32 31 31 30 30 30 29 30 30 30 29 29 29 29 28 28 28 28 28 28 28 28 28 28 29 29 29
35 34 34 33 33 32 32 32 32 32 31 31 31 32 31 31 30 29 29 29 29 29 28 28 28 28 28 27 27 27 26 26 27 27 26 26 26 27 27 28 28 26
33 33 32 32 31 31 31 31 31 31 31 31 31 30 31 30 29 29 28 28 27 27 27 26 26 26 26 26 26 25 25 25 25 25 25 25 25 25 27 27 26 25
33 32 32 31 30 30 30 30 30 30 30 30 29 30 30 28 28 27 27 26 26 25 25 25 25 25 25 25 24 24 24 25 24 24 24 24 24 23 28 26 25 24
32 31 31 30 29 30 30 30 30 29 30 28 28 28 28 28 27 26 25 25 24 24 24 24 24 24 24 24 23 23 23 23 23 23 23 22 23 27 26 25 23 22
31 31 30 30 29 30 29 29 29 29 29 27 27 27 26 26 26 24 24 24 23 23 23 23 23 23 23 24 23 23 22 22 22 22 22 22 23 24 23 22 22 21
30 30 29 29 28 29 28 28 27 28 28 26 26 25 25 25 24 24 23 23 22 22 22 22 23 23 22 22 23 23 22 22 22 22 23 23 23 23 22 21 21 21
29 29 28 28 27 27 27 27 27 26 26 25 24 23 23 23 22 22 22 21 21 22 22 22 22 22 22 23 23 23 23 23 23 23 24 22 21 21 21 21 21 21
29 28 28 27 27 27 26 26 25 24 23 23 23 21 21 20 21 20 21 21 21 21 21 22 22 22 22 23 23 23 23 22 22 22 21 20 21 20 20 21 21 21
28 28 27 26 26 25 24 24 23 22 22 22 20 19 19 19 19 19 20 20 20 21 21 22 22 22 22 22 22 22 22 21 21 20 20 20 21 21 21 21 21 21
27 26 25 25 23 23 22 21 21 20 19 18 18 17 18 18 18 18 18 19 20 21 21 22 21 21 22 21 21 21 21 20 20 20 20 20 20 21 22 22 23 23
25 24 23 23 22 21 20 19 19 18 17 16 15 16 16 17 17 17 18 18 19 20 21 20 20 21 20 21 22 21 20 20 20 20 20 20 20 20 21 23 23 25
23 22 22 20 20 18 16 15 15 14 14 13 14 14 14 15 16 17 18 19 19 19 18 19 19 20 20 22 23 24 22 21 20 20 21 22 21 22 22 23 24 25
22 20 18 17 16 14 13 12 12 11 11 11 11 11 13 15 15 16 18 18 18 18 18 18 18 19 21 22 23 23 24 22 22 21 22 22 23 23 24 24 24 25
20 16 15 13 13 12 10 10 9 9 9 9 9 11 13 13 15 15 15 16 17 16 16 17 18 19 21 22 23 24 25 24 22 22 22 22 23 23 23 24 24 24
16 13 12 11 11 9 9 9 9 8 9 10 10 11 12 12 13 13 13 14 15 14 15 16 16 17 20 22 23 24 25 25 23 22 23 23 23 23 23 23 23 24
13 12 10 10 9 8 8 7 7 8 8 9 11 11 11 11 11 11 11 11 12 12 13 13 15 18 21 22 23 24 26 26 22 22 22 22 23 23 23 23 24 24
11 10 8 8 8 8 7 7 7 8 7 9 9 10 11 11 11 11 10 10 11 11 12 11 15 19 21 22 24 25 26 22 22 21 21 22 22 23 23 24 25 24
10 8 7 6 6 6 6 6 6 6 8 10 8 9 9 9 9 10 10 10 10 10 10 11 13 17 21 22 23 25 24 21 21 21 21 21 21 23 24 24 25 25
9 7 6 5 5 4 5 6 7 8 8 9 8 7 8 8 9 9 10 10 10 9 11 11 13 17 21 22 23 24 24 21 20 20 19 20 21 23 24 24 25 26
7 6 5 5 4 5 5 4 5 6 8 8 8 8 7 8 9 9 9 10 10 11 14 14 14 17 21 22 23 24 23 21 21 19 19 19 20 21 23 24 24 25
5 4 4 3 3 3 4 4 6 6 6 6 6 7 8 8 9 9 7 9 11 12 13 15 15 16 18 22 23 24 24 22 21 19 18 19 20 20 20 21 23 24

ECMWFNIL_sfc_temp_033.txt.gz
Temp
46 46 45 44 44 44 43 42 43 42 42 42 41 41 41 41 41 39 39 38 37 37 37 36 36 36 35 36 35 35 34 34 34 34 34 33 33 32 31 32 32 32
45 45 44 44 43 43 43 42 42 41 41 40 40 40 40 39 39 38 36 36 36 35 36 35 35 35 34 34 34 33 33 33 32 34 32 32 32 32 31 31 31 32
44 43 42 41 41 41 41 41 40 40 39 39 39 39 37 38 36 36 36 35 34 34 34 34 34 34 33 33 33 32 32 32 31 32 32 31 32 31 31 32 31 31
43 42 41 41 41 40 40 39 38 38 38 36 37 37 36 35 35 34 34 34 33 33 33 33 33 33 33 32 32 31 31 31 32 32 31 31 31 31 30 31 31 30
41 40 40 39 40 39 38 37 36 36 36 36 37 36 36 35 34 33 33 33 33 32 33 32 33 32 32 31 31 30 30 30 31 30 30 29 30 30 30 30 29 29
40 40 39 38 38 37 37 36 36 36 36 35 35 36 35 34 34 33 33 32 32 32 32 32 31 31 31 30 30 29 29 29 29 29 28 27 28 29 28 28 28 27
38 38 37 37 37 36 36 36 36 35 35 35 35 34 34 33 33 32 32 32 31 31 30 30 30 29 30 29 28 28 28 28 28 27 26 26 27 26 27 27 27 26
38 37 37 36 35 35 35 35 35 35 34 34 33 33 34 33 32 32 32 31 30 29 29 29 29 28 28 28 27 27 27 27 27 26 26 25 26 25 26 26 26 25
37 36 36 35 34 34 34 34 34 34 34 33 33 33 33 32 32 31 30 30 29 28 28 28 28 28 28 27 27 26 26 26 26 26 25 24 24 24 24 25 25 24
36 36 35 34 34 34 34 34 34 33 33 32 32 32 31 32 31 30 29 28 27 27 27 27 27 27 27 27 26 25 25 25 25 25 25 24 24 24 24 24 24 23
36 35 34 34 33 34 34 34 33 33 33 31 31 30 30 30 29 29 28 27 26 26 26 26 26 26 26 26 26 26 25 25 25 25 24 24 24 24 24 24 24 23
35 35 34 33 33 34 33 33 32 32 31 31 30 29 29 28 27 27 27 26 26 26 26 26 26 26 25 25 25 25 25 25 25 25 25 24 24 24 24 24 24 25
34 34 34 34 33 33 33 32 31 31 30 29 29 28 27 26 26 26 26 25 25 25 25 25 25 25 25 25 25 25 25 25 24 24 24 24 24 24 24 24 23 22
34 34 34 34 33 32 32 31 30 30 28 28 27 25 25 24 24 24 24 24 24 24 24 25 24 24 25 25 25 25 25 24 23 23 23 23 23 23 23 23 23 23
34 34 33 32 31 30 29 28 28 27 27 26 25 24 24 23 23 23 22 22 23 23 24 24 24 24 24 24 24 24 23 23 23 23 22 22 22 22 23 23 23 23
33 32 31 30 29 28 28 27 26 25 24 22 21 22 22 22 22 21 21 21 21 23 24 24 24 24 24 25 25 23 23 23 23 23 22 22 22 22 23 24 24 24
30 29 29 27 27 27 24 24 23 22 21 20 19 19 19 19 19 19 20 21 22 22 22 22 23 23 24 25 25 26 24 23 22 22 23 23 23 22 22 23 24 25
29 27 26 25 24 22 20 19 19 18 17 16 16 16 16 18 18 19 20 21 21 22 21 21 22 23 24 24 25 25 25 23 23 22 22 23 23 23 23 24 24 24
27 24 23 21 20 19 17 15 15 14 14 13 13 15 16 16 17 18 19 20 20 19 19 20 20 22 23 24 24 25 25 25 23 23 23 23 23 23 23 23 23 24
24 21 20 19 17 16 15 13 12 12 13 14 14 14 14 15 16 16 17 17 18 18 18 18 19 20 22 23 24 25 26 26 23 23 23 23 23 23 23 23 23 23
20 19 17 16 14 13 13 12 12 12 12 13 13 14 14 14 14 14 15 15 15 15 16 15 16 19 21 23 24 25 26 26 23 23 22 22 23 23 23 23 24 24
18 16 15 14 12 11 11 11 11 11 11 13 14 15 15 15 14 14 13 12 13 13 13 13 15 19 21 22 24 25 26 23 22 21 21 22 23 23 23 24 24 24
17 15 13 12 11 10 10 10 10 11 11 13 12 13 13 13 12 12 13 12 12 12 11 12 13 17 20 22 23 24 24 21 21 21 21 21 22 23 23 24 24 25
16 14 12 11 11 10 10 10 11 12 11 13 12 11 12 12 12 12 12 12 12 11 12 11 12 16 20 22 23 24 24 21 21 20 20 20 21 23 24 24 25 26
13 13 12 11 10 10 10 10 10 10 12 12 11 11 11 11 11 11 11 12 12 12 14 14 13 16 20 21 23 24 23 21 20 20 19 19 20 21 23 23 24 24
13 11 11 10 9 9 9 9 10 10 10 10 10 11 10 12 12 11 9 10 11 12 13 14 15 15 18 22 23 23 24 21 21 19 18 19 20 20 20 21 22 22